Time,TemperatureF,DewpointF,PressureIn,WindDirection,WindDirectionDegrees,WindSpeedMPH,WindSpeedGustMPH,Humidity,HourlyPrecipIn,Conditions,Clouds,dailyrainin,SolarRadiationWatts/m^2,SoftwareType,DateUTC
2013-10-23 00:00:00,36.0,24.0,-100.00,North,0,7.0,-999.0,61,-99.99,,,-99.99,0.000000,,2013-10-23 05:00:00,
2013-10-23 00:43:00,36.0,24.0,-100.00,North,0,7.0,-999.0,61,-99.99,,,-99.99,0.000000,,2013-10-23 05:43:00,
2013-10-23 00:53:00,36.0,24.0,-100.00,North,0,7.0,-999.0,61,-99.99,,,-99.99,0.000000,,2013-10-23 05:53:00,
2013-10-23 01:00:00,35.0,23.0,-100.00,NNW,337,5.0,-999.0,61,-99.99,,,-99.99,0.000000,,2013-10-23 06:00:00,
2013-10-23 01:42:00,35.0,23.0,-100.00,NNW,337,5.0,-999.0,61,-99.99,,,-99.99,0.000000,,2013-10-23 06:42:00,
2013-10-23 01:52:00,35.0,23.0,-100.00,NNW,337,5.0,-999.0,61,-99.99,,,-99.99,0.000000,,2013-10-23 06:52:00,
2013-10-23 02:00:00,34.0,25.0,-100.00,NNW,337,4.0,-999.0,69,-99.99,,,-99.99,0.000000,,2013-10-23 07:00:00,
2013-10-23 02:42:00,34.0,25.0,-100.00,NNW,337,4.0,-999.0,69,-99.99,,,-99.99,0.000000,,2013-10-23 07:42:00,
2013-10-23 02:52:00,34.0,25.0,-100.00,NNW,337,4.0,-999.0,69,-99.99,,,-99.99,0.000000,,2013-10-23 07:52:00,
2013-10-23 03:00:00,34.0,27.0,-100.00,NNW,337,4.0,-999.0,72,-99.99,,,-99.99,0.000000,,2013-10-23 08:00:00,
2013-10-23 03:42:00,34.0,27.0,-100.00,NNW,337,4.0,-999.0,72,-99.99,,,-99.99,0.000000,,2013-10-23 08:42:00,
2013-10-23 03:53:00,34.0,27.0,-100.00,NNW,337,4.0,-999.0,72,-99.99,,,-99.99,0.000000,,2013-10-23 08:53:00,
2013-10-23 04:00:00,35.0,28.0,-100.00,NNW,337,4.0,-999.0,77,-99.99,,,-99.99,0.000000,,2013-10-23 09:00:00,
2013-10-23 04:43:00,35.0,28.0,-100.00,NNW,337,4.0,-999.0,77,-99.99,,,-99.99,0.000000,,2013-10-23 09:43:00,
2013-10-23 04:53:00,35.0,28.0,-100.00,NNW,337,4.0,-999.0,77,-99.99,,,-99.99,0.000000,,2013-10-23 09:53:00,
2013-10-23 05:00:00,34.0,28.0,-100.00,NNW,337,4.0,-999.0,78,-99.99,,,-99.99,0.000000,,2013-10-23 10:00:00,
2013-10-23 05:43:00,34.0,28.0,-100.00,NNW,337,4.0,-999.0,78,-99.99,,,-99.99,0.000000,,2013-10-23 10:43:00,
2013-10-23 05:53:00,34.0,28.0,-100.00,NNW,337,4.0,-999.0,78,-99.99,,,-99.99,0.000000,,2013-10-23 10:53:00,
2013-10-23 06:00:00,34.0,27.0,-100.00,NNW,337,3.0,-999.0,73,-99.99,,,-99.99,0.000000,,2013-10-23 11:00:00,
2013-10-23 06:42:00,34.0,27.0,-100.00,NNW,337,3.0,-999.0,73,-99.99,,,-99.99,0.000000,,2013-10-23 11:42:00,
2013-10-23 06:52:00,34.0,27.0,-100.00,NNW,337,3.0,-999.0,73,-99.99,,,-99.99,0.000000,,2013-10-23 11:52:00,
2013-10-23 07:00:00,35.0,25.0,-100.00,NNW,337,5.0,-999.0,67,-99.99,,,-99.99,0.000000,,2013-10-23 12:00:00,
2013-10-23 07:42:00,35.0,25.0,-100.00,NNW,337,5.0,-999.0,67,-99.99,,,-99.99,0.000000,,2013-10-23 12:42:00,
2013-10-23 07:52:00,35.0,25.0,-100.00,NNW,337,5.0,-999.0,67,-99.99,,,-99.99,0.000000,,2013-10-23 12:52:00,
2013-10-23 08:00:00,35.0,27.0,-100.00,NW,315,5.0,-999.0,72,-99.99,,,-99.99,10.440000,,2013-10-23 13:00:00,
2013-10-23 08:43:00,35.0,27.0,-100.00,NW,315,5.0,-999.0,72,-99.99,,,-99.99,10.440000,,2013-10-23 13:43:00,
2013-10-23 08:52:00,35.0,27.0,-100.00,NW,315,5.0,-999.0,72,-99.99,,,-99.99,10.440000,,2013-10-23 13:52:00,
2013-10-23 09:00:00,37.0,28.0,-100.00,NNW,337,6.0,-999.0,69,-99.99,,,-99.99,149.639999,,2013-10-23 14:00:00,
2013-10-23 09:42:00,37.0,28.0,-100.00,NNW,337,6.0,-999.0,69,-99.99,,,-99.99,149.639999,,2013-10-23 14:42:00,
2013-10-23 09:52:00,37.0,28.0,-100.00,NNW,337,6.0,-999.0,69,-99.99,,,-99.99,149.639999,,2013-10-23 14:52:00,
2013-10-23 10:00:00,38.0,29.0,-100.00,NNW,337,7.0,-999.0,68,-99.99,,,-99.99,327.119995,,2013-10-23 15:00:00,
2013-10-23 10:43:00,38.0,29.0,-100.00,NNW,337,7.0,-999.0,68,-99.99,,,-99.99,327.119995,,2013-10-23 15:43:00,
2013-10-23 10:53:00,38.0,29.0,-100.00,NNW,337,7.0,-999.0,68,-99.99,,,-99.99,327.119995,,2013-10-23 15:53:00,
2013-10-23 11:00:00,40.0,29.0,-100.00,NNW,337,6.0,-999.0,63,-99.99,,,-99.99,454.720001,,2013-10-23 16:00:00,
2013-10-23 11:43:00,40.0,29.0,-100.00,NNW,337,6.0,-999.0,63,-99.99,,,-99.99,454.720001,,2013-10-23 16:43:00,
2013-10-23 11:53:00,40.0,29.0,-100.00,NNW,337,6.0,-999.0,63,-99.99,,,-99.99,454.720001,,2013-10-23 16:53:00,
2013-10-23 12:00:00,42.0,27.0,-100.00,NW,315,6.0,-999.0,54,-99.99,,,-99.99,525.479980,,2013-10-23 17:00:00,
2013-10-23 12:44:00,42.0,27.0,-100.00,NW,315,6.0,-999.0,54,-99.99,,,-99.99,525.479980,,2013-10-23 17:44:00,
2013-10-23 12:52:00,42.0,27.0,-100.00,NW,315,6.0,-999.0,54,-99.99,,,-99.99,525.479980,,2013-10-23 17:52:00,
2013-10-23 14:00:00,43.0,22.0,-100.00,NW,315,5.0,-999.0,42,-99.99,,,-99.99,204.160004,,2013-10-23 19:00:00,
2013-10-23 14:42:00,43.0,22.0,-100.00,NW,315,5.0,-999.0,42,-99.99,,,-99.99,204.160004,,2013-10-23 19:42:00,
2013-10-23 14:53:00,43.0,22.0,-100.00,NW,315,5.0,-999.0,42,-99.99,,,-99.99,204.160004,,2013-10-23 19:53:00,
2013-10-23 15:00:00,42.0,22.0,-100.00,NW,315,5.0,-999.0,44,-99.99,,,-99.99,153.119995,,2013-10-23 20:00:00,
2013-10-23 15:42:00,42.0,22.0,-100.00,NW,315,5.0,-999.0,44,-99.99,,,-99.99,153.119995,,2013-10-23 20:42:00,
2013-10-23 15:52:00,42.0,22.0,-100.00,NW,315,5.0,-999.0,44,-99.99,,,-99.99,153.119995,,2013-10-23 20:52:00,
2013-10-23 16:00:00,42.0,22.0,-100.00,NW,315,6.0,-999.0,45,-99.99,,,-99.99,124.120003,,2013-10-23 21:00:00,
2013-10-23 16:43:00,42.0,22.0,-100.00,NW,315,6.0,-999.0,45,-99.99,,,-99.99,124.120003,,2013-10-23 21:43:00,
2013-10-23 16:54:00,42.0,22.0,-100.00,NW,315,6.0,-999.0,45,-99.99,,,-99.99,124.120003,,2013-10-23 21:54:00,
2013-10-23 17:00:00,41.0,24.0,-100.00,NW,315,6.0,-999.0,50,-99.99,,,-99.99,58.000000,,2013-10-23 22:00:00,
2013-10-23 17:43:00,41.0,24.0,-100.00,NW,315,6.0,-999.0,50,-99.99,,,-99.99,58.000000,,2013-10-23 22:43:00,
2013-10-23 17:54:00,41.0,24.0,-100.00,NW,315,6.0,-999.0,50,-99.99,,,-99.99,58.000000,,2013-10-23 22:54:00,
2013-10-23 18:00:00,39.0,25.0,-100.00,NNW,337,6.0,-999.0,55,-99.99,,,-99.99,11.600000,,2013-10-23 23:00:00,
2013-10-23 18:43:00,39.0,25.0,-100.00,NNW,337,6.0,-999.0,55,-99.99,,,-99.99,11.600000,,2013-10-23 23:43:00,
2013-10-23 18:53:00,39.0,25.0,-100.00,NNW,337,6.0,-999.0,55,-99.99,,,-99.99,11.600000,,2013-10-23 23:53:00,
2013-10-23 19:00:00,38.0,26.0,-100.00,NW,315,5.0,-999.0,59,-99.99,,,-99.99,0.000000,,2013-10-24 00:00:00,
2013-10-23 19:43:00,38.0,26.0,-100.00,NW,315,5.0,-999.0,59,-99.99,,,-99.99,0.000000,,2013-10-24 00:43:00,
2013-10-23 19:52:00,38.0,26.0,-100.00,NW,315,5.0,-999.0,59,-99.99,,,-99.99,0.000000,,2013-10-24 00:52:00,
2013-10-23 20:00:00,38.0,25.0,-100.00,NW,315,6.0,-999.0,59,-99.99,,,-99.99,0.000000,,2013-10-24 01:00:00,
2013-10-23 20:42:00,38.0,25.0,-100.00,NW,315,6.0,-999.0,59,-99.99,,,-99.99,0.000000,,2013-10-24 01:42:00,
2013-10-23 20:52:00,38.0,25.0,-100.00,NW,315,6.0,-999.0,59,-99.99,,,-99.99,0.000000,,2013-10-24 01:52:00,
2013-10-23 21:00:00,37.0,26.0,-100.00,NNW,337,7.0,-999.0,64,-99.99,,,-99.99,0.000000,,2013-10-24 02:00:00,
2013-10-23 21:52:00,37.0,26.0,-100.00,NNW,337,7.0,-999.0,64,-99.99,,,-99.99,0.000000,,2013-10-24 02:52:00,
2013-10-23 22:00:00,36.0,26.0,-100.00,NNW,337,6.0,-999.0,67,-99.99,,,-99.99,0.000000,,2013-10-24 03:00:00,
2013-10-23 22:44:00,36.0,26.0,-100.00,NNW,337,6.0,-999.0,67,-99.99,,,-99.99,0.000000,,2013-10-24 03:44:00,
2013-10-23 22:55:00,36.0,26.0,-100.00,NNW,337,6.0,-999.0,67,-99.99,,,-99.99,0.000000,,2013-10-24 03:55:00,
2013-10-23 23:00:00,35.0,26.0,-100.00,NW,315,6.0,-999.0,67,-99.99,,,-99.99,0.000000,,2013-10-24 04:00:00,
2013-10-23 23:44:00,35.0,26.0,-100.00,NW,315,6.0,-999.0,67,-99.99,,,-99.99,0.000000,,2013-10-24 04:44:00,
2013-10-23 23:54:00,35.0,26.0,-100.00,NW,315,6.0,-999.0,67,-99.99,,,-99.99,0.000000,,2013-10-24 04:54:00,